Погода во Флориде

Уругвай     34°05′42″S   56°12′41″W
темп.,
°C
ветер,
м/с
пор.,
м/с
влажн.,
%
обл.,
%
осадки,
мм/ч
давл.,
гПа
погр.,
м
25 февраля, чт
чт2500:00+17св23650 0.0 101523
03:00+17с33620 0.0 101429
06:00+16ссз34610 0.0 101448
09:00+22сз34530 0.0 1016235
12:00+28зюз23360 0.0 10161112
15:00+30ююв22280 0.0 10142028
18:00+29в22400 0.0 1013145
21:00+21всв23510 0.0 101424
26 февраля, пт
пт2600:00+19св45570 0.0 101494
03:00+18с410660 0.0 1014167
06:00+16с36730 0.0 1015115
09:00+22ссв34580 0.0 1017277
12:00+28всв34340 0.0 10161005
15:00+31в56290 0.0 10151740
18:00+27всв68450 0.0 1015947
21:00+21в513670 0.0 1017393
27 февраля, сб
сб2700:00+19св513870 0.0 1018407
03:00+17св411950 0.0 1018365
06:00+16св38960 0.0 1020219
09:00+22всв610730 0.0 1021725
12:00+27всв79530 0.0 10211191
15:00+29всв710460 0.0 10191593
18:00+27всв710540 0.0 10181594
21:00+21всв714790 0.0 1020764
28 февраля, вс
вс2800:00+19всв615823 0.0 1021703
03:00+18всв5149227 0.0 1020678
06:00+17всв4129676 0.0 1021493
09:00+22св8126937 0.0 1020919
12:00+27св7105292 0.0 10191386
15:00+29всв894751 0.0 10161782
18:00+26всв8105767 0.0 10151535
21:00+22всв5127283 0.0 1015810
1 марта, пн
пн100:00+19всв51480100 0.0 1016644
03:00+18св5138879 0.0 1014509
06:00+17всв4109359 0.0 1014379
09:00+22св697144 0.0 1014607
12:00+28св555221 0.0 10141381
15:00+30всв454011 0.0 10122068
18:00+28в564944 0.0 10101242
21:00+22всв5117523 0.0 1012345